Billings, MT

4:24 AM MDT on September 26, 2017 (GMT -0600)
Billings Logan International

Weather History for KBIL - September, 2012

Change the Weather History Date:

Tuesday, September 4, 2012

  Actual Average Record
Temperature  
Mean Temperature 66 °F 65 °F  
Max Temperature 80 °F 79 °F 100 °F (1950)
Min Temperature 51 °F 52 °F 31 °F (1962)
Degree Days  
Heating Degree Days 0 3  
Month to date heating degree days 0 11  
Since 1 July heating degree days 7 48  
Cooling Degree Days 1 3  
Month to date cooling degree days 25 14  
Year to date cooling degree days 918 596  
Growing Degree Days 16 (Base 50)    
Moisture  
Dew Point 30 °F    
Average Humidity 28    
Maximum Humidity 51    
Minimum Humidity 8    
Precipitation  
Precipitation 0.00 in 0.04 in 0.54 in (1987)
Month to date precipitation T 0.14  
Year to date precipitation 5.08 10.19  
Snow  
Snow 0.00 in 0.00 in 0.00 in (2002)
Month to date snowfall 0.0 0.0  
Since 1 July snowfall 0.0 0.0  
Since 1 September snowfall 0.0 0.0  
Snow Depth 0.00 in    
Sea Level Pressure  
Sea Level Pressure 29.99 in    
Wind  
Wind Speed 9 mph (WNW)    
Max Wind Speed 30 mph    
Max Gust Speed 40 mph    
Visibility 10 miles    
Events      
T = Trace of Precipitation, MM = Missing Value Source: NWS Daily Summary

Daily Weather History Graph

Daily Weather History Graph

Search for Another Location

Airport or City:

Trip Planner

Search our weather history database for the weather conditions in past years. The results will help you decide how hot, cold, wet, or windy it might be!

Date:

Astronomy

Sep. 04, 2012 Rise Set
Actual Time 6:39 AM MDT 7:45 PM MDT
Civil Twilight 6:08 AM MDT 8:15 PM MDT
Nautical Twilight 5:32 AM MDT 8:52 PM MDT
Astronomical Twilight 4:53 AM MDT 9:30 PM MDT
Moon 9:22 PM MDT (9/4) 11:06 AM MDT (9/4)
Length of Visible Light 14h 06m
Length of Day
13h 06m
Waning Gibbous, 83% of the Moon is Illuminated
Sep 4
Waning Gibbous
Sep 8
Last Quarter
Sep 15
New
Sep 22
First Quarter
Sep 29
Full

Hourly Weather History & Observations

Time (MDT) Temp. Dew Point Humidity Pressure Visibility Wind Dir Wind Speed Gust Speed Precip Events Conditions
12:53 AM 61.0 °F 19.9 °F 21% 29.90 in 10.0 mi NNW 5.8 mph - N/A   Clear
1:53 AM 59.0 °F 21.0 °F 23% 29.89 in 10.0 mi NNW 6.9 mph - N/A   Clear
2:53 AM 55.9 °F 23.0 °F 28% 29.89 in 10.0 mi SW 5.8 mph - N/A   Clear
3:53 AM 55.9 °F 25.0 °F 30% 29.89 in 10.0 mi SW 8.1 mph - N/A   Clear
4:53 AM 53.1 °F 24.1 °F 32% 29.91 in 10.0 mi SW 5.8 mph - N/A   Clear
5:53 AM 55.0 °F 23.0 °F 29% 29.92 in 10.0 mi SW 9.2 mph - N/A   Clear
6:53 AM 54.0 °F 23.0 °F 30% 29.94 in 10.0 mi SW 10.4 mph - N/A   Partly Cloudy
7:53 AM 54.0 °F 24.1 °F 31% 29.96 in 10.0 mi SW 10.4 mph - N/A   Partly Cloudy
8:53 AM 57.9 °F 25.0 °F 28% 29.97 in 10.0 mi WSW 11.5 mph - N/A   Clear
9:53 AM 62.1 °F 32.0 °F 32% 29.96 in 10.0 mi SW 10.4 mph - N/A   Clear
10:53 AM 69.1 °F 33.1 °F 26% 29.97 in 10.0 mi Variable 3.5 mph - N/A   Clear
11:53 AM 73.0 °F 30.0 °F 20% 29.96 in 10.0 mi Calm Calm - N/A   Partly Cloudy
12:53 PM 77.0 °F 28.9 °F 17% 29.95 in 10.0 mi NNW 10.4 mph 18.4 mph N/A   Partly Cloudy
1:53 PM 78.1 °F 28.0 °F 16% 29.94 in 10.0 mi North 8.1 mph 16.1 mph N/A   Partly Cloudy
2:53 PM 79.0 °F 28.0 °F 15% 29.94 in 10.0 mi NNW 13.8 mph 23.0 mph N/A   Scattered Clouds
3:53 PM 75.2 °F 32.0 °F 21% 30.04 in 10.0 mi NNE 23.0 mph 34.5 mph N/A   Mostly Cloudy
4:53 PM 70.0 °F 37.0 °F 30% 30.02 in 10.0 mi NNE 24.2 mph 35.7 mph N/A   Scattered Clouds
5:53 PM 66.9 °F 37.9 °F 34% 30.05 in 10.0 mi NE 19.6 mph 27.6 mph N/A   Partly Cloudy
6:53 PM 63.0 °F 37.9 °F 40% 30.10 in 10.0 mi ENE 13.8 mph - N/A   Clear
7:53 PM 59.0 °F 37.9 °F 46% 30.12 in 10.0 mi ENE 8.1 mph - N/A   Clear
8:53 PM 57.9 °F 37.0 °F 46% 30.13 in 10.0 mi East 9.2 mph - N/A   Clear
9:53 PM 57.9 °F 37.0 °F 46% 30.14 in 10.0 mi SE 4.6 mph - N/A   Clear
10:53 PM 57.0 °F 37.0 °F 47% 30.13 in 10.0 mi SSE 5.8 mph - N/A   Clear
11:53 PM 55.0 °F 37.0 °F 51% 30.12 in 10.0 mi Calm Calm - N/A   Clear